Regional Weather Roundup
Issued by NWS Little Rock, AR

Home | Current Version | Previous Version | Graphics & Text | Print | Product List | Glossary On
Versions: 1 2 3 4 5 6 7 8 9 10 11 12 13 14 15 16 17 18 19 20 21 22 23 24 25 26 27 28 29 30 31 32 33 34 35 36 37 38 39 40 41 42 43 44 45 46 47 48 49 50
000
ASUS44 KLZK 070205
RWRLZK

WEATHER ROUNDUP FOR ARKANSAS
NATIONAL WEATHER SERVICE LITTLE ROCK AR
800 PM CST SAT FEB 06 2016

NOTE: "FAIR" INDICATES FEW OR NO CLOUDS BELOW 12,000 FEET WITH NO
SIGNIFICANT WEATHER AND/OR OBSTRUCTIONS TO VISIBILITY.

ARZ001-003-010-029-070300-
NORTHWEST ARKANSAS

CITY           SKY/WX    TMP DP  RH WIND       PRES   REMARKS
FAYETTEVILLE   CLEAR     35  26  69 CALM      30.27R
FORT SMITH     CLEAR     40  23  50 CALM      30.29S
HARRISON       CLEAR     43  23  45 SW3       30.25S
BENTONVILLE    CLEAR     43  25  49 SW5       30.26F
ROGERS         CLEAR     44  27  51 SW6       30.25F
SILOAM SPGS    CLEAR     43  25  49 SW5       30.26F
HIGHFILL       CLEAR     41  28  60 SW5       30.25S
SPRINGDALE     CLEAR     45  27  49 S5        30.27S
$$

ARZ004-005-016-070300-
NORTH CENTRAL ARKANSAS

CITY           SKY/WX    TMP DP  RH WIND       PRES   REMARKS
BATESVILLE     CLEAR     45  18  33 S3        30.30S
FLIPPIN        CLEAR     39  19  45 SW3       30.24S
MTN HOME       CLEAR     43  16  33 S5        30.25R
$$

ARZ040-041-070300-
WEST CENTRAL ARKANSAS

CITY           SKY/WX    TMP DP  RH WIND       PRES   REMARKS
MENA           CLEAR     32  28  86 CALM      30.30R
MOUNT IDA      CLEAR     39  22  50 CALM      30.27R
$$

ARZ009-017-025-026-028-070300-
NORTHEAST ARKANSAS

CITY           SKY/WX    TMP DP  RH WIND       PRES   REMARKS
CORNING        FAIR      39  28  65 S8        30.30R
JONESBORO      CLEAR     34  26  72 CALM      30.31R
NEWPORT        CLEAR     39  28  65 S7        30.32R
WALNUT RIDGE   CLEAR     37  23  56 S8        30.30R
BLYTHEVILLE    CLEAR     45  25  45 W5        30.31S
$$

ARZ022-023-033-042-044-070300-
CENTRAL ARKANSAS

CITY           SKY/WX    TMP DP  RH WIND       PRES   REMARKS
LITTLE ROCK    CLEAR     43  23  45 S3        30.31R
N LITTLE ROCK  CLEAR     45  24  42 SE3       30.31R
JACKSONVILLE   CLEAR     35  27  70 CALM      30.30R
SEARCY         CLEAR     36  27  69 CALM      30.32S
HOT SPRINGS    CLEAR     39  24  55 NE3       30.30R
RUSSELLVILLE   CLEAR     37  21  52 CALM      30.29R HAZE
CLINTON        FAIR      32  25  74 CALM      30.30S
$$

ARZ036-070300-
EAST ARKANSAS

CITY           SKY/WX    TMP DP  RH WIND       PRES   REMARKS
WEST MEMPHIS   CLEAR     36  27  69 CALM      30.31S
$$

ARZ050-053-066-070-073-070300-
SOUTHWEST ARKANSAS

CITY           SKY/WX    TMP DP  RH WIND       PRES   REMARKS
ARKADELPHIA    FAIR      37  34  89 CALM      30.32R
CAMDEN         CLEAR     37  25  60 CALM      30.32S
TEXARKANA      CLEAR     45  27  49 SW5       30.32R
EL DORADO      CLEAR     38  28  67 CALM      30.32R
DE QUEEN       CLEAR     38  29  70 CALM      30.31R
$$

ARZ056-057-069-070300-
SOUTHEAST ARKANSAS

CITY           SKY/WX    TMP DP  RH WIND       PRES   REMARKS
PINE BLUFF     CLEAR     43  28  55 CALM      30.32R
STUTTGART      CLEAR     46  21  36 SE5       30.32S
MONTICELLO     CLEAR     42  24  49 CALM      30.32R

$$





USA.gov is the U.S. government's official web portal to all federal, state and local government web resources and services.